| time (UTC) | temp C | wind direction | speed KPH | gust KPH | rain 1hr cm | rain 24hr cm | rain mn cm | humidity % | barometer mb |
| 20260503021510 | 10 | 0 | 0.0 | 0.0 | 0.00 | 0.00 | 0.00 | 71 | 1019.1 |
| 20260503020610 | 10 | 0 | 0.0 | 0.0 | 0.00 | 0.00 | 0.00 | 70 | 1019.2 |
| 20260503015920 | 10 | 360 | 0.0 | 3.2 | 0.00 | 0.00 | 0.00 | 70 | 1019.1 |
| 20260503015022 | 10 | 0 | 0.0 | 0.0 | 0.00 | 0.00 | 0.00 | 70 | 1019.2 |
| 20260503013911 | 10 | 0 | 0.0 | 0.0 | 0.00 | 0.00 | 0.00 | 69 | 1019.2 |
| 20260503013010 | 10 | 360 | 0.0 | 3.2 | 0.00 | 0.00 | 0.00 | 69 | 1019.1 |
| 20260503012324 | 11 | 360 | 0.0 | 3.2 | 0.00 | 0.00 | 0.00 | 68 | 1019.1 |
| 20260503011210 | 11 | 6 | 0.0 | 3.2 | 0.00 | 0.00 | 0.00 | 68 | 1019.1 |
| 20260503010310 | 11 | 360 | 0.0 | 1.6 | 0.00 | 0.00 | 0.00 | 68 | 1019.1 |
| 20260503005621 | 11 | 360 | 0.0 | 1.6 | 0.00 | 0.00 | 0.00 | 68 | 1019.1 |
| 20260503004510 | 11 | 0 | 0.0 | 0.0 | 0.00 | 0.00 | 0.00 | 67 | 1019.2 |
| 20260503003821 | 11 | 0 | 0.0 | 0.0 | 0.00 | 0.00 | 0.00 | 67 | 1019.2 |
| 20260503002923 | 11 | 0 | 0.0 | 0.0 | 0.00 | 0.00 | 0.00 | 67 | 1019.3 |
| 20260503002020 | 11 | 0 | 0.0 | 0.0 | 0.00 | 0.00 | 0.00 | 68 | 1019.5 |
| 20260503001123 | 11 | 0 | 0.0 | 0.0 | 0.00 | 0.00 | 0.00 | 67 | 1019.5 |
| 20260503000010 | 11 | 0 | 0.0 | 0.0 | 0.00 | 0.00 | 0.00 | 67 | 1019.5 |
| 20260502235110 | 11 | 0 | 0.0 | 0.0 | 0.00 | 0.00 | 0.00 | 66 | 1019.6 |
| 20260502234210 | 11 | 0 | 0.0 | 0.0 | 0.00 | 0.00 | 0.00 | 66 | 1019.7 |
| 20260502233522 | 11 | 0 | 0.0 | 0.0 | 0.00 | 0.00 | 0.00 | 66 | 1019.7 |
| 20260502232619 | 11 | 0 | 0.0 | 0.0 | 0.00 | 0.00 | 0.00 | 66 | 1019.7 |
| 20260502231510 | 11 | 0 | 0.0 | 0.0 | 0.00 | 0.00 | 0.00 | 64 | 1019.7 |
| 20260502230610 | 12 | 0 | 0.0 | 0.0 | 0.00 | 0.00 | 0.00 | 62 | 1019.8 |
| 20260502225710 | 12 | 0 | 0.0 | 0.0 | 0.00 | 0.00 | 0.00 | 61 | 1019.8 |
| 20260502225024 | 12 | 0 | 0.0 | 0.0 | 0.00 | 0.00 | 0.00 | 60 | 1019.9 |
| 20260502223910 | 12 | 0 | 0.0 | 0.0 | 0.00 | 0.00 | 0.00 | 59 | 1019.8 |
| 20260502223224 | 12 | 0 | 0.0 | 0.0 | 0.00 | 0.00 | 0.00 | 59 | 1019.9 |
| 20260502222110 | 12 | 0 | 0.0 | 0.0 | 0.00 | 0.00 | 0.00 | 58 | 1020.0 |
| 20260502221424 | 13 | 0 | 0.0 | 0.0 | 0.00 | 0.00 | 0.00 | 57 | 1020.0 |
| 20260502215739 | 13 | 0 | 0.0 | 0.0 | 0.00 | 0.00 | 0.00 | 54 | 1019.8 |
| 20260502214837 | 14 | 0 | 0.0 | 0.0 | 0.00 | 0.00 | 0.00 | 54 | 1019.8 |
| 20260502213939 | 14 | 0 | 0.0 | 0.0 | 0.00 | 0.00 | 0.00 | 53 | 1019.9 |
| 20260502213036 | 14 | 0 | 0.0 | 0.0 | 0.00 | 0.00 | 0.00 | 52 | 1019.9 |
| 20260502211925 | 14 | 315 | 0.0 | 3.2 | 0.00 | 0.00 | 0.00 | 53 | 1019.7 |
| 20260502211236 | 14 | 326 | 0.0 | 3.2 | 0.00 | 0.00 | 0.00 | 54 | 1019.7 |
| 20260502210338 | 14 | 0 | 0.0 | 0.0 | 0.00 | 0.00 | 0.00 | 54 | 1019.8 |
| 20260502205225 | 15 | 0 | 0.0 | 0.0 | 0.00 | 0.00 | 0.00 | 53 | 1019.8 |
| 20260502204325 | 15 | 0 | 0.0 | 0.0 | 0.00 | 0.00 | 0.00 | 53 | 1019.9 |
| 20260502203425 | 15 | 180 | 0.0 | 1.6 | 0.00 | 0.00 | 0.00 | 51 | 1019.9 |
| 20260502202525 | 16 | 0 | 0.0 | 0.0 | 0.00 | 0.00 | 0.00 | 51 | 1019.9 |
| 20260502201625 | 16 | 0 | 0.0 | 0.0 | 0.00 | 0.00 | 0.00 | 51 | 1020.0 |
| 20260502200725 | 16 | 0 | 0.0 | 0.0 | 0.00 | 0.00 | 0.00 | 51 | 1020.0 |
| 20260502195825 | 16 | 0 | 0.0 | 0.0 | 0.00 | 0.00 | 0.00 | 50 | 1020.0 |
| 20260502195137 | 16 | 0 | 0.0 | 0.0 | 0.00 | 0.00 | 0.00 | 50 | 1020.0 |
| 20260502194025 | 16 | 0 | 0.0 | 0.0 | 0.00 | 0.00 | 0.00 | 49 | 1019.9 |
| 20260502193125 | 16 | 0 | 0.0 | 0.0 | 0.00 | 0.00 | 0.00 | 48 | 1019.9 |
| 20260502192439 | 16 | 0 | 0.0 | 0.0 | 0.00 | 0.00 | 0.00 | 48 | 1019.9 |
| 20260502191537 | 17 | 0 | 0.0 | 0.0 | 0.00 | 0.00 | 0.00 | 47 | 1019.9 |
| 20260502190425 | 17 | 0 | 0.0 | 0.0 | 0.00 | 0.00 | 0.00 | 45 | 1019.9 |
| 20260502185525 | 17 | 0 | 0.0 | 0.0 | 0.00 | 0.00 | 0.00 | 44 | 1019.7 |
| 20260502184839 | 17 | 0 | 0.0 | 0.0 | 0.00 | 0.00 | 0.00 | 43 | 1019.6 |
| 20260502183725 | 18 | 0 | 0.0 | 0.0 | 0.00 | 0.00 | 0.00 | 41 | 1019.6 |
| 20260502181925 | 18 | 175 | 0.0 | 6.4 | 0.00 | 0.00 | 0.00 | 38 | 1019.5 |
| 20260502181238 | 19 | 147 | 0.0 | 6.4 | 0.00 | 0.00 | 0.00 | 38 | 1019.5 |
| 20260502180125 | 19 | 153 | 1.6 | 6.4 | 0.00 | 0.00 | 0.00 | 36 | 1019.5 |
| 20260502164236 | 21 | 152 | 4.8 | 19.3 | 0.00 | 0.00 | 0.00 | 30 | 1019.5 |
| 20260502163125 | 22 | 168 | 3.2 | 12.9 | 0.00 | 0.00 | 0.00 | 28 | 1019.5 |
| 20260502162225 | 23 | 157 | 4.8 | 12.9 | 0.00 | 0.00 | 0.00 | 26 | 1019.6 |
| 20260502161538 | 23 | 167 | 6.4 | 14.5 | 0.00 | 0.00 | 0.00 | 24 | 1019.5 |
| 20260502160425 | 25 | 201 | 3.2 | 12.9 | 0.00 | 0.00 | 0.00 | 19 | 1019.7 |
| 20260502152138 | 25 | 230 | 3.2 | 14.5 | 0.00 | 0.00 | 0.00 | 13 | 1020.2 |
| 20260502151025 | 25 | 183 | 3.2 | 9.7 | 0.00 | 0.00 | 0.00 | 13 | 1020.1 |
| 20260502150125 | 25 | 208 | 3.2 | 9.7 | 0.00 | 0.00 | 0.00 | 14 | 1020.3 |
| 20260502130425 | 24 | 220 | 8.0 | 17.7 | 0.00 | 0.00 | 0.00 | 15 | 1021.8 |
| 20260502123726 | 24 | 224 | 3.2 | 19.3 | 0.00 | 0.00 | 0.00 | 15 | 1022.3 |
| 20260502123037 | 23 | 222 | 4.8 | 14.5 | 0.00 | 0.00 | 0.00 | 15 | 1022.4 |
| 20260502122139 | 23 | 214 | 4.8 | 12.9 | 0.00 | 0.00 | 0.00 | 15 | 1022.5 |
| 20260502121237 | 23 | 180 | 3.2 | 12.9 | 0.00 | 0.00 | 0.00 | 14 | 1022.6 |
| 20260502120125 | 23 | 186 | 3.2 | 12.9 | 0.00 | 0.00 | 0.00 | 15 | 1022.8 |
| 20260502115225 | 23 | 239 | 4.8 | 17.7 | 0.00 | 0.00 | 0.00 | 17 | 1022.9 |
| 20260502114325 | 23 | 194 | 4.8 | 16.1 | 0.00 | 0.00 | 0.00 | 16 | 1023.1 |
| 20260502113425 | 23 | 200 | 4.8 | 16.1 | 0.00 | 0.00 | 0.00 | 16 | 1023.2 |
| 20260502112525 | 23 | 231 | 4.8 | 19.3 | 0.00 | 0.00 | 0.00 | 17 | 1023.3 |
| 20260502111625 | 22 | 234 | 4.8 | 20.9 | 0.00 | 0.00 | 0.00 | 18 | 1023.5 |
| 20260502110725 | 22 | 270 | 6.4 | 20.9 | 0.00 | 0.00 | 0.00 | 18 | 1023.5 |
| 20260502105825 | 22 | 227 | 3.2 | 14.5 | 0.00 | 0.00 | 0.00 | 19 | 1023.6 |
| 20260502104925 | 22 | 262 | 4.8 | 16.1 | 0.00 | 0.00 | 0.00 | 19 | 1023.8 |
| 20260502104025 | 22 | 256 | 4.8 | 12.9 | 0.00 | 0.00 | 0.00 | 20 | 1023.9 |
| 20260502103338 | 22 | 219 | 4.8 | 12.9 | 0.00 | 0.00 | 0.00 | 21 | 1023.9 |
| 20260502102225 | 22 | 205 | 4.8 | 14.5 | 0.00 | 0.00 | 0.00 | 22 | 1024.0 |
| 20260502101325 | 21 | 223 | 6.4 | 16.1 | 0.00 | 0.00 | 0.00 | 21 | 1024.2 |
| 20260502100634 | 21 | 225 | 6.4 | 14.5 | 0.00 | 0.00 | 0.00 | 25 | 1024.3 |
| 20260502091239 | 20 | 218 | 1.6 | 6.4 | 0.00 | 0.00 | 0.00 | 26 | 1024.8 |
| 20260502090336 | 20 | 218 | 1.6 | 8.0 | 0.00 | 0.00 | 0.00 | 26 | 1024.8 |
| 20260502071325 | 17 | 89 | 0.0 | 3.2 | 0.00 | 0.00 | 0.00 | 37 | 1025.5 |
| 20260502070636 | 17 | 90 | 0.0 | 6.4 | 0.00 | 0.00 | 0.00 | 38 | 1025.7 |
| 20260502065739 | 16 | 48 | 0.0 | 6.4 | 0.00 | 0.00 | 0.00 | 38 | 1025.8 |
| 20260502064836 | 16 | 82 | 0.0 | 6.4 | 0.00 | 0.00 | 0.00 | 39 | 1025.8 |
| 20260502063938 | 16 | 77 | 0.0 | 4.8 | 0.00 | 0.00 | 0.00 | 41 | 1025.9 |
| 20260502062825 | 16 | 101 | 0.0 | 4.8 | 0.00 | 0.00 | 0.00 | 43 | 1025.9 |
| 20260502062138 | 15 | 78 | 0.0 | 6.4 | 0.00 | 0.00 | 0.00 | 45 | 1025.8 |
| 20260502061235 | 14 | 55 | 1.6 | 4.8 | 0.00 | 0.00 | 0.00 | 48 | 1025.9 |
| 20260502060338 | 13 | 36 | 1.6 | 9.7 | 0.00 | 0.00 | 0.00 | 50 | 1025.9 |
| 20260502055225 | 12 | 22 | 3.2 | 6.4 | 0.00 | 0.00 | 0.00 | 52 | 1025.7 |
| 20260502054325 | 12 | 9 | 3.2 | 8.0 | 0.00 | 0.00 | 0.00 | 52 | 1025.9 |
| 20260502053635 | 11 | 10 | 3.2 | 8.0 | 0.00 | 0.00 | 0.00 | 55 | 1025.8 |
| 20260502052525 | 11 | 45 | 0.0 | 1.6 | 0.00 | 0.00 | 0.00 | 58 | 1025.7 |
| 20260502051834 | 10 | 6 | 0.0 | 3.2 | 0.00 | 0.00 | 0.00 | 58 | 1025.9 |
| 20260502050726 | 10 | 360 | 0.0 | 4.8 | 0.00 | 0.00 | 0.00 | 59 | 1025.7 |
| 20260502050039 | 10 | 3 | 1.6 | 6.4 | 0.00 | 0.00 | 0.00 | 60 | 1025.6 |
| 20260502044925 | 9 | 329 | 0.0 | 1.6 | 0.00 | 0.00 | 0.00 | 60 | 1025.7 |
| 20260502044025 | 9 | 10 | 0.0 | 3.2 | 0.00 | 0.00 | 0.00 | 60 | 1025.7 |
| 20260502043336 | 9 | 2 | 0.0 | 3.2 | 0.00 | 0.00 | 0.00 | 60 | 1025.7 |
| 20260502042225 | 8 | 0 | 0.0 | 0.0 | 0.00 | 0.00 | 0.00 | 60 | 1025.7 |
| 20260502041536 | 8 | 0 | 0.0 | 0.0 | 0.00 | 0.00 | 0.00 | 59 | 1025.6 |
| 20260502040426 | 8 | 360 | 0.0 | 1.6 | 0.00 | 0.00 | 0.00 | 58 | 1025.8 |
| 20260502035525 | 8 | 345 | 0.0 | 3.2 | 0.00 | 0.00 | 0.00 | 58 | 1025.8 |
| 20260502034838 | 8 | 307 | 0.0 | 3.2 | 0.00 | 0.00 | 0.00 | 58 | 1025.8 |
| 20260502033935 | 8 | 0 | 0.0 | 0.0 | 0.00 | 0.00 | 0.00 | 59 | 1025.6 |
| 20260502032825 | 8 | 32 | 0.0 | 3.2 | 0.00 | 0.00 | 0.00 | 60 | 1025.7 |
| 20260502031925 | 7 | 360 | 0.0 | 1.6 | 0.00 | 0.00 | 0.00 | 61 | 1025.7 |
| 20260502031025 | 7 | 0 | 0.0 | 0.0 | 0.00 | 0.00 | 0.00 | 60 | 1025.8 |
| 20260502030125 | 7 | 0 | 0.0 | 0.0 | 0.00 | 0.00 | 0.00 | 59 | 1025.8 |
| 20260502025437 | 7 | 0 | 0.0 | 0.0 | 0.00 | 0.00 | 0.00 | 59 | 1025.8 |
| 20260502024325 | 7 | 0 | 0.0 | 0.0 | 0.00 | 0.00 | 0.00 | 59 | 1025.8 |
| 20260502023637 | 7 | 0 | 0.0 | 0.0 | 0.00 | 0.00 | 0.00 | 60 | 1025.9 |
| 20260502022525 | 6 | 0 | 0.0 | 0.0 | 0.00 | 0.00 | 0.00 | 60 | 1026.2 |